C/2018 N2 ( ASASSN )

Japanese version
Home page
Updated on October 14, 2018

---------------------------------------------------------------------

* Profile

Discovery Date July 7, 2018
Magnitude 16.4 mag
Discoverer All-Sky Automated Survey for Supernovae (ASASSN) program

* Orbital Elements

Epoch 2019 Nov. 13.0 TT = JDT 2458800.5
T 2019 Nov. 11.17174 TT                                 MPCW
q   3.1262620            (2000.0)            P               Q
z  +0.0003683      Peri.   24.38123     +0.78558935     -0.45730536
 +/-0.0002108      Node    25.26974     +0.27039619     -0.35215841
e   0.9988487      Incl.   77.52303     +0.55653865     +0.81661268
From 83 observations 2018 July 7-Sept. 14, mean residual 0".7.

* Finding Charts

* Magnitudes Graph

        m1 = 4.0 + 5 log d + 10.0 log r

---------------------------------------------------------------------

The orbital elements are published on M.P.E.C. 2018-S50.
The charts are made with StellaNavigator Ver.10 (AstroArts).
The magnitudes graphs are made with Comet for Windows.

---------------------------------------------------------------------

Copyright(C) Seiichi Yoshida (comet@aerith.net). All rights reserved.